• In Latvia
  • List of Countries
  • For 7 days
  • Water Temperature
  • Satellite Maps
  • Weather Map
  • Weather Widgets
  • user-avatar
    Login

    Hourly Weather Frankfurt am Mein

    Today, 25 September, Tuesday

    Time Temperature Precipitation Wind Pressure Humidity
    00:00 +6°C° 0 mm 1 mps 736 mmHg 83%
    01:00 +5°C° 0 mm 1 mps 736 mmHg 85%
    02:00 +5°C° 0 mm 1 mps 736 mmHg 86%
    03:00 +5°C° 0 mm 1 mps 736 mmHg 86%
    04:00 +4°C° 0 mm 1 mps 736 mmHg 87%
    05:00 +5°C° 0 mm 1 mps 736 mmHg 87%
    06:00 +5°C° 0 mm 1 mps 736 mmHg 86%
    07:00 +5°C° 0 mm 1 mps 737 mmHg 84%
    08:00 +7°C° 0 mm 1 mps 737 mmHg 75%
    09:00 +9°C° 0 mm 1 mps 737 mmHg 67%
    10:00 +11°C° 0 mm 1 mps 738 mmHg 59%
    11:00 +12°C° 0 mm 1 mps 738 mmHg 54%
    12:00 +13°C° 0 mm 1 mps 738 mmHg 49%
    13:00 +14°C° 0 mm 2 mps 738 mmHg 45%
    14:00 +14°C° 0 mm 2 mps 737 mmHg 45%
    15:00 +14°C° 0 mm 2 mps 737 mmHg 45%
    16:00 +14°C° 0 mm 2 mps 737 mmHg 46%
    17:00 +12°C° 0 mm 2 mps 737 mmHg 52%
    18:00 +10°C° 0 mm 2 mps 737 mmHg 58%
    19:00 +9°C° 0 mm 1 mps 736 mmHg 64%
    20:00 +8°C° 0 mm 1 mps 737 mmHg 67%
    21:00 +8°C° 0 mm 1 mps 737 mmHg 69%
    22:00 +7°C° 0 mm 1 mps 737 mmHg 71%
    23:00 +7°C° 0 mm 1 mps 737 mmHg 72%

    Tomorrow, 26 September, Wednesday

    Time Temperature Precipitation Wind Pressure Humidity
    00:00 +6°C° 0 mm 1 mps 736 mmHg 73%
    01:00 +6°C° 0 mm 1 mps 736 mmHg 74%
    02:00 +6°C° 0 mm 1 mps 736 mmHg 74%
    03:00 +5°C° 0 mm 1 mps 736 mmHg 74%
    04:00 +5°C° 0 mm 1 mps 735 mmHg 75%
    05:00 +5°C° 0 mm 1 mps 735 mmHg 74%
    06:00 +5°C° 0 mm 1 mps 735 mmHg 73%
    07:00 +5°C° 0 mm 1 mps 735 mmHg 72%
    08:00 +7°C° 0 mm 1 mps 735 mmHg 64%
    09:00 +9°C° 0 mm 1 mps 736 mmHg 56%
    10:00 +12°C° 0 mm 2 mps 736 mmHg 48%
    11:00 +13°C° 0 mm 2 mps 736 mmHg 43%
    12:00 +15°C° 0 mm 2 mps 735 mmHg 39%
    13:00 +16°C° 0 mm 2 mps 735 mmHg 34%
    14:00 +18°C° 0 mm 1 mps 735 mmHg 35%
    15:00 +18°C° 0 mm 1 mps 734 mmHg 35%
    16:00 +18°C° 0 mm 1 mps 734 mmHg 35%
    17:00 +15°C° 0 mm 1 mps 734 mmHg 40%
    18:00 +13°C° 0 mm 1 mps 734 mmHg 44%
    19:00 +10°C° 0 mm 0 mps 733 mmHg 49%
    20:00 +10°C° 0 mm 0 mps 734 mmHg 50%
    21:00 +9°C° 0 mm 0 mps 734 mmHg 51%
    22:00 +9°C° 0 mm 0 mps 734 mmHg 53%
    23:00 +8°C° 0 mm 0 mps 734 mmHg 54%

    Day after tomorrow, 27 September, Thursday

    Time Temperature Precipitation Wind Pressure Humidity
    00:00 +8°C° 0 mm 0 mps 734 mmHg 55%
    01:00 +8°C° 0 mm 0 mps 734 mmHg 56%
    02:00 +8°C° 0 mm 0 mps 733 mmHg 57%
    03:00 +7°C° 0 mm 0 mps 733 mmHg 58%
    04:00 +7°C° 0 mm 0 mps 733 mmHg 59%
    05:00 +7°C° 0 mm 0 mps 733 mmHg 59%
    06:00 +7°C° 0 mm 0 mps 733 mmHg 60%
    07:00 +7°C° 0 mm 0 mps 733 mmHg 60%
    08:00 +10°C° 0 mm 0 mps 733 mmHg 54%
    09:00 +13°C° 0 mm 1 mps 733 mmHg 49%
    10:00 +15°C° 0 mm 1 mps 733 mmHg 43%
    11:00 +18°C° 0 mm 1 mps 733 mmHg 40%
    12:00 +19°C° 0 mm 1 mps 732 mmHg 38%
    13:00 +20°C° 0 mm 2 mps 732 mmHg 35%
    14:00 +20°C° 0 mm 2 mps 731 mmHg 37%
    15:00 +20°C° 0 mm 2 mps 731 mmHg 39%
    16:00 +20°C° 0 mm 2 mps 730 mmHg 41%
    17:00 +19°C° 0 mm 1 mps 730 mmHg 47%
    18:00 +16°C° 0 mm 1 mps 729 mmHg 53%
    19:00 +14°C° 0 mm 1 mps 729 mmHg 59%
    20:00 +13°C° 0 mm 1 mps 729 mmHg 63%
    21:00 +12°C° 0 mm 1 mps 728 mmHg 66%
    22:00 +12°C° 0 mm 1 mps 728 mmHg 69%
    23:00 +11°C° 0 mm 1 mps 728 mmHg 72%

    28 September, Friday

    Time Temperature Precipitation Wind Pressure Humidity
    00:00 +11°C° 0 mm 1 mps 727 mmHg 75%
    01:00 +10°C° 0 mm 1 mps 727 mmHg 78%
    02:00 +10°C° 0 mm 1 mps 727 mmHg 80%
    03:00 +10°C° 0 mm 1 mps 726 mmHg 82%
    04:00 +9°C° 0 mm 1 mps 726 mmHg 83%
    05:00 +9°C° 0 mm 1 mps 726 mmHg 84%
    06:00 +9°C° 0 mm 1 mps 726 mmHg 84%
    07:00 +8°C° 0 mm 0 mps 726 mmHg 84%
    08:00 +11°C° 0 mm 1 mps 727 mmHg 75%
    09:00 +13°C° 0 mm 1 mps 727 mmHg 66%
    10:00 +15°C° 0 mm 1 mps 727 mmHg 57%
    11:00 +16°C° 0 mm 2 mps 727 mmHg 53%
    12:00 +17°C° 0 mm 2 mps 727 mmHg 49%
    13:00 +18°C° 0 mm 2 mps 727 mmHg 45%
    14:00 +18°C° 0 mm 2 mps 727 mmHg 47%
    15:00 +18°C° 0 mm 3 mps 727 mmHg 50%
    16:00 +17°C° 0 mm 3 mps 727 mmHg 53%
    17:00 +16°C° 0 mm 3 mps 727 mmHg 61%
    18:00 +13°C° 0 mm 3 mps 727 mmHg 68%
    19:00 +11°C° 0 mm 3 mps 727 mmHg 76%
    20:00 +10°C° 0 mm 3 mps 727 mmHg 78%
    21:00 +9°C° 0 mm 3 mps 728 mmHg 80%
    22:00 +8°C° 0 mm 3 mps 728 mmHg 82%
    23:00 +8°C° 0 mm 2 mps 728 mmHg 82%

    29 September, Saturday

    Time Temperature Precipitation Wind Pressure Humidity
    00:00 +7°C° 0 mm 2 mps 728 mmHg 82%
    01:00 +6°C° 0 mm 2 mps 729 mmHg 81%
    02:00 +6°C° 0 mm 2 mps 729 mmHg 82%
    03:00 +6°C° 0 mm 2 mps 729 mmHg 83%
    04:00 +5°C° 0 mm 2 mps 729 mmHg 83%
    05:00 +5°C° 0 mm 2 mps 729 mmHg 83%
    06:00 +5°C° 0 mm 2 mps 729 mmHg 84%
    07:00 +4°C° 0 mm 2 mps 730 mmHg 84%
    08:00 +5°C° 0 mm 3 mps 730 mmHg 75%
    09:00 +8°C° 0 mm 3 mps 730 mmHg 66%
    10:00 +10°C° 0 mm 3 mps 730 mmHg 57%
    11:00 +11°C° 0 mm 3 mps 730 mmHg 52%
    12:00 +12°C° 0 mm 3 mps 730 mmHg 47%
    13:00 +13°C° 0 mm 4 mps 729 mmHg 43%
    14:00 +14°C° 0 mm 4 mps 729 mmHg 43%
    15:00 +14°C° 0 mm 4 mps 729 mmHg 44%
    16:00 +14°C° 0 mm 4 mps 728 mmHg 44%
    17:00 +12°C° 0 mm 3 mps 728 mmHg 50%
    18:00 +10°C° 0 mm 3 mps 728 mmHg 56%
    19:00 +9°C° 0 mm 3 mps 728 mmHg 62%
    20:00 +8°C° 0 mm 3 mps 728 mmHg 63%
    21:00 +8°C° 0 mm 3 mps 727 mmHg 64%
    22:00 +7°C° 0 mm 3 mps 727 mmHg 65%
    23:00 +5°C° 0 mm 3 mps 727 mmHg 66%

    30 September, Sunday

    Time Temperature Precipitation Wind Pressure Humidity
    00:00 +6°C° 0 mm 2 mps 727 mmHg 67%
    01:00 +5°C° 0 mm 2 mps 726 mmHg 69%
    02:00 +5°C° 0 mm 2 mps 726 mmHg 70%
    03:00 +4°C° 0 mm 2 mps 725 mmHg 71%
    04:00 +4°C° 0 mm 2 mps 725 mmHg 72%
    05:00 +4°C° 0 mm 2 mps 725 mmHg 73%
    06:00 +4°C° 0 mm 2 mps 725 mmHg 73%
    07:00 +4°C° 0 mm 2 mps 725 mmHg 74%
    08:00 +6°C° 0 mm 2 mps 725 mmHg 67%
    09:00 +8°C° 0 mm 2 mps 725 mmHg 59%
    10:00 +10°C° 0 mm 2 mps 725 mmHg 51%
    11:00 +13°C° 0 mm 2 mps 724 mmHg 47%
    12:00 +14°C° 0 mm 2 mps 724 mmHg 43%
    13:00 +16°C° 0 mm 2 mps 724 mmHg 38%
    14:00 +16°C° 0 mm 2 mps 723 mmHg 39%
    15:00 +16°C° 0 mm 2 mps 723 mmHg 39%
    16:00 +16°C° 0 mm 1 mps 723 mmHg 39%
    17:00 +14°C° 0 mm 1 mps 722 mmHg 45%
    18:00 +12°C° 0 mm 1 mps 722 mmHg 51%
    19:00 +10°C° 0 mm 1 mps 722 mmHg 57%
    20:00 +9°C° 0 mm 1 mps 722 mmHg 59%
    21:00 +9°C° 0 mm 1 mps 722 mmHg 61%
    22:00 +9°C° 0 mm 1 mps 722 mmHg 63%
    23:00 +8°C° 0 mm 1 mps 722 mmHg 63%
    Show more